Location: Bratislava
(48.1500°N, 17.1170°E)
Time: 11:59:39
(UTC+01:00)

Envisat - Visible Passes

Search period start: 18 February 2018 00:00
Search period end: 28 February 2018 00:00
Orbit: 764 x 766 km, 98.2° (Epoch: 18 February)

Date Brightness Start Highest point End Pass type
(mag) Time Alt. Az. Time Alt. Az. Time Alt. Az.
18 Feb 3.5 18:27:24 10° SE 18:32:04 38° ENE 18:36:46 10° N visible
18 Feb 4.6 20:06:38 10° SSW 20:11:09 32° W 20:15:42 10° NNW visible
19 Feb 4.2 17:52:00 10° ESE 17:55:41 21° ENE 17:59:23 10° NNE visible
19 Feb 3.3 19:29:12 10° S 19:34:15 65° WSW 19:39:20 10° NNW visible
20 Feb 3.0 18:52:32 10° SSE 18:57:32 63° ENE 19:02:34 10° N visible
20 Feb 5.4 20:33:22 10° SW 20:37:00 19° W 20:40:38 10° NW visible
21 Feb 3.7 18:16:34 10° SE 18:21:01 32° ENE 18:25:29 10° N visible
21 Feb 4.3 19:55:12 10° SSW 19:59:56 39° W 20:04:43 10° NNW visible
22 Feb 3.0 19:18:01 10° SSE 19:23:05 81° WSW 19:28:12 10° NNW visible
22 Feb 5.9 21:01:19 10° WSW 21:02:56 11° W 21:04:33 10° WNW visible
23 Feb 3.1 18:41:32 10° SE 18:46:26 51° ENE 18:51:21 10° N visible
23 Feb 5.1 20:21:40 10° SW 20:25:45 24° W 20:29:50 10° NW visible
24 Feb 4.0 18:05:48 10° ESE 18:09:59 27° ENE 18:14:11 10° N visible
24 Feb 3.9 19:43:51 10° S 19:48:45 48° W 19:53:41 10° NNW visible
25 Feb 2.9 19:06:53 10° SSE 19:11:57 83° ENE 19:17:04 10° NNW visible
25 Feb 5.8 20:48:55 10° WSW 20:51:38 14° W 20:54:22 10° NW visible
26 Feb 3.4 18:30:37 10° SE 18:35:22 42° ENE 18:40:08 10° N visible
26 Feb 4.8 20:10:07 10° SSW 20:14:30 29° W 20:18:56 10° NNW visible
27 Feb 4.2 17:55:06 10° ESE 17:58:57 22° ENE 18:02:48 10° N visible
27 Feb 3.5 19:32:34 10° S 19:37:34 60° W 19:42:37 10° NNW visible
